Погода в Астраханке

Погода в Астраханке : погода сейчас, прогноз погоды и архив. Всё, что Вы хотите узнать о погоде в Астраханке!

Хотите узнать прогноз погоды в Астраханке? Тогда Вам сюда: Погода в Астраханке

Поиск расширенной информации на нашем сайте:

Другие новости

Новости СМИ2

Главная страница сайта

Новости сайта

03.07.2017

Напоминаем, что на нашем специализированном сайте Метеоцентр.Азия вы можете получить высокодетализированные автоматические прогнозы погоды по пунктам России, СНГ и мира в авиационном формате (включающие направление и скорость ветра, видимость, явления погоды, количество и форму облачности, нижнюю и верхнюю границу облачности).


Погода в Астраханке - сегодня

Время (UTC), дата Ветер
(°,м/с) 
Видим.   Явления Облачность Т
(°С)
Тd
(°С)
f(%) Тe
(°С)
Pmin
(гПа)
dP
(гПа)
Po
(мм)
O2
(г/м3)
Тmin Tmax R s Состояние
почвы
06 09.12.17 110 (В) 10 км    8/0 верхняя 
[Ci fib]
-11.3 -17.2 62 -11  1016.6  0.2  755  319           
09 09.12.17 090 (В) 10 км    8/0 верхняя 
[Ci]
-11.9 -15.7 73 -14  1017.4  0.8  755  320    -11       
12 09.12.17 130 (ЮВ) 10 км    10/0 средняя, верхняя 
[Ac trans|Ci fib]
-13.8 -16.4 81 -14  1017.3  -0.2  755  322           
15 09.12.17 300 (СЗ) 10 км    10/0 средняя 
[Ac As]
-12.8 -15 84 -13  1016  -1.2  754  320           
18 09.12.17 170 (Ю) 4000 м  слаб. ливневой снег  10/10 600 м кучево-дожд. 
[Cb cap]
-13 -15.2 84 -13  1014.2  -1.8  753  320           
21 09.12.17 тихо ()   4000 м  слаб. ливневой снег  10/10 600 м кучево-дожд. 
[Cb cap]
-12.3 -14.1 86 -12  1012.3  -1.9  752  318  -14.1    неравномерный
сухой снег
100% 
00 10.12.17 320 (СЗ) 4000 м  слаб. ливневой снег  10/10 1000 м кучево-дожд. 
[Cb cap]
-11.4 -13.1 87 -11  1012.1  -0.1  751  317           
03 10.12.17 010 (С) 10 км  {ливн. осадки}  10/4 1000 м кучево-дожд., средняя 
[Cb cap|As trans]
-10.6 -12.6 85 -15  1010.7  -1.3  750  316           
06 10.12.17 010 (С) 7{10}  10 км  в посл. час ливневой снег  10/10 1000 м кучево-дожд. 
[Cb cap]
-12 -14 85 -18  1011.2  0.4  751  318           
09 10.12.17 010 (С) 8{11}  10 км    10/6 1000 м кучево-дожд., средняя 
[Cb cap|As op]
-11.9 -14.4 82 -19  1012.5  1.2  752  318    -10.4  0.4     
12 10.12.17 360 (С) 9-11{11}  10 км    10/0 средняя 
[As op]
-11.7 -14.6 79 -19  1012.9  0.5  752  318           
15 10.12.17 330 (СЗ) 4{11}  10 км    10/0 средняя 
[As op]
-12.7 -16.9 71 -17  1012.6  -0.3  752  319           
18 10.12.17 330 (СЗ) 7-12{13}  4000 м  слаб. ливневой снег  10/10 600 м кучево-дожд. 
[Cb cap]
-14.8 -19.9 65 -22  1012.4  -0.3  752  322           
21 10.12.17 310 (СЗ) 4{14}  10 км  {ливн. осадки}  10/0 средняя 
[As op]
-16.3 -21.7 63 -21  1012.2  -0.2  751  324  -16.3    0.2  равномерный
сухой снег
100% 
00 11.12.17 310 (СЗ) 3{11}  4000 м  слаб. снег{ливн. осадки}  10/0 средняя 
[As op]
-16.3 -21.2 66 -20  1012  -0.2  751  323  -16.4         
03 11.12.17 290 (З) 2000 м  снег  10/0 средняя 
[As op]
-16 -19.3 76 -21  1010.3  -1.7  750  323           
06 11.12.17 300 (СЗ) 4000 м  слаб. снег  10/0 средняя 
[As op]
-15.4 -19.3 72 -20  1009.5  -0.9  749  321           
09 11.12.17 300 (СЗ) 6-11{12}  10 км  позёмок{снег}  10/0 средняя 
[As op]
-14.9 -19.2 70 -21  1009.3  -0.1  749  321    -14.8     
12 11.12.17 290 (З) 7-13{15}  10 км  позёмок{снег}  10/0 средняя 
[As op]
-15.5 -20.1 68 -23  1010.5  1.1  750  322           
18 11.12.17 300 (СЗ) 5-11{12}  10 км  слаб. снег  10/0 средняя 
[As op]
-15.3 -20.6 64 -21  1012.7  752  322           
21 11.12.17 300 (СЗ) 6-12{14}  10 км  позёмок{снег}  8/0 средняя, верхняя 
[As trans|Cc]
-15.6 -21.6 60 -22  1013.2  0.5  752  323  -15.7    0.0  равномерный
сухой снег
100% 
00 12.12.17 300 (СЗ) 5-11{13}  10 км  {снег}  10/3 600 м кучево-дожд., средняя 
[Cb cap|As trans]
-15.1 -21.4 59 -21  1015.7  2.5  754  323           
06 12.12.17 310 (СЗ) 5{12}  20000 м    8/3 1000 м кучево-дожд., средняя, верхняя 
[Cb cap|Ac lent|Ci fib]
-13.8 -23.2 45 -19  1018.5  756  323           
09 12.12.17 310 (СЗ) 20000 м    5/3 600 м средняя 
[Sc diur, vesp|Ac trans]
-15 -23.9 47 -17  1021.2  2.6  758  325    -12.8       
12 12.12.17 330 (СЗ) 20000 м    ясно 
-15.9 -25.4 44 -21  1022.9  1.6  759  327           
Время (UTC), дата Ветер
(°,м/с) 
Видим.   Явления Облачность Т
(°С)
Тd
(°С)
f(%) Тe
(°С)
Pmin
(гПа)
dP
(гПа)
Po
(мм)
O2
(г/м3)
Тmin Tmax R s Состояние
почвы

Для получения пояснительной информации подведите курсор к названию столбца.

ПОГОДА в Астраханке - архив

Всё, что Вы хотите узнать о погоде в Астраханке - удобно и подробно!

Выберите нужную дату (начиная с 1 января 2015* года) и нажмите кнопку "Найти".
Будут отображены архивные сводки погоды по пункту Астраханка, начиная с указанной даты.


Отображать данные в формате CSV (для использования в таблицах Excel)


Внимание! Наш архив погоды предназначен исключительно для личного некоммерческого использования в познавательных целях. Если Вам необходимы официальные справки о состоянии погоды (для производственных, юридических, коммерческих и т.п. целей), обращайтесь в органы Росгидромета.

*Примечание: данная дата относится к архиву по метеостанциям СССР (Россия, СНГ, Балтия).
Архив по метеостанциям Зарубежной Европы и Азии (кроме Китая) хранится 10 дней, по другим регионам земного шара (Китай, Африка, Америка, Австралия, Океания) - 1 день.

Астраханка - район местоположения метеостанции


Название, широта, долгота, высота метеостанции:
Астраханка 44.7°ш. 132.1°д. 78 м над ур. моря [Российская Федерация]

Дополнительная информация

В oтличие oт бoльшинства пoгoдных сайтoв мы публикуем пoдрoбную метеoинфoрмацию в детальнoм прoфессиoнальнoм фoрмате.

Характеристики температуры и влажнoсти вoздуха измеряются на высoте 2 м в тени вдали oт зданий и деревьев.
Скoрoсть ветра измеряется на высoте 10 м (на урoвне рoста челoвека скoрoсть ветра ниже в 1.5-2 раза). Если метеoстанция нахoдится в гoрoде или в лесу, тo скoрoсть ветра занижена на 2-4 м/с пo сравнению с oткрытым местoм. Скoрoсть ветра над акватoриями крупных рек и oзёр, а также на вершинах хoлмoв на 2-5 м/с выше, чем в oбычных услoвиях.
Атмoсфернoе давление в разных тoчках местнoсти мoжет значительнo oтличаться oт давления на метеoстанции, в зависимoсти oт услoвий рельефа (при пoдъёме на 10 м давление пoнижается примернo на 1 мм рт.ст.).